Weather History for Cognac, France

Change the Weather History Date:

Wednesday, January 2, 2013

  Actual Average Record
Temperature  
Mean Temperature 39 °F -  
Max Temperature 50 °F - - ()
Min Temperature 28 °F - - ()
Degree Days  
Heating Degree Days 26    
Moisture  
Dew Point 37 °F    
Average Humidity 90    
Maximum Humidity 100    
Minimum Humidity 66    
Precipitation  
Precipitation 0.00 in - - ()
Sea Level Pressure  
Sea Level Pressure 30.40 in    
Wind  
Wind Speed 1 mph ()    
Max Wind Speed 5 mph    
Max Gust Speed -    
Visibility 3.3 miles    
Events Fog    
T = Trace of Precipitation, MM = Missing Value Source: Averaged Metar Reports

Daily Weather History Graph

Daily Weather History Graph

Search for Another Location

Airport:

Trip Planner

Search our weather history database for the weather conditions in past years. The results will help you decide how hot, cold, wet, or windy it might be!

Date:

Astronomy

Jan. 02, 2013 Rise Set
Actual Time 8:42 AM CET 5:28 PM CET
Civil Twilight 8:07 AM CET 6:03 PM CET
Nautical Twilight 7:30 AM CET 6:40 PM CET
Astronomical Twilight 6:54 AM CET 7:16 PM CET
Moon 11:03 PM CET (1/2) 11:00 AM CET (1/2)
Length of Visible Light 9h 55m
Length of Day
8h 46m
Waning Gibbous, 77% of the Moon is Illuminated
Jan 2
Waning Gibbous
Jan 5
Last Quarter
Jan 11
New
Jan 19
First Quarter
Jan 27
Full

Hourly Weather History & Observations

Time (CET) Temp. Windchill Dew Point Humidity Pressure Visibility Wind Dir Wind Speed Gust Speed Precip Events Conditions
12:00 AM 41.0 °F - 37.4 °F 87% 30.21 in 6.2 mi West 2.3 mph - N/A   Unknown
12:30 AM 41.0 °F 39.0 °F 39.2 °F 93% 30.21 in 0.2 mi WSW 3.5 mph - N/A Fog Fog
1:00 AM 39.2 °F - 39.2 °F 100% 30.21 in 1.3 mi WSW 1.2 mph - N/A   Mist
1:30 AM 39.2 °F - 37.4 °F 93% 30.21 in 0.2 mi WSW 1.2 mph - N/A Fog Fog
2:00 AM 37.4 °F - 37.4 °F 100% 30.21 in 0.3 mi Calm Calm - N/A Fog Fog
2:30 AM 37.4 °F - 35.6 °F 93% 30.24 in 0.3 mi Calm Calm - N/A Fog Fog
3:00 AM 33.8 °F - 32.0 °F 93% 30.24 in 0.1 mi Calm Calm - N/A Fog Fog
3:30 AM 35.6 °F - 33.8 °F 93% 30.27 in 0.2 mi West 2.3 mph - N/A Fog Fog
4:00 AM 33.8 °F - 32.0 °F 93% 30.27 in 0.1 mi SW 2.3 mph - N/A Fog Fog
4:30 AM 32.0 °F - 32.0 °F 100% 30.27 in 0.2 mi Calm Calm - N/A Fog Fog
5:00 AM 33.8 °F - 32.0 °F 93% 30.30 in 0.2 mi Calm Calm - N/A Fog Patches of Fog
5:30 AM 35.6 °F - 35.6 °F 100% 30.30 in 0.2 mi WSW 2.3 mph - N/A Fog Fog
6:00 AM 35.6 °F - 33.8 °F 93% 30.30 in 0.2 mi West 2.3 mph - N/A Fog Fog
6:30 AM 33.8 °F - 33.8 °F 100% 30.30 in 0.1 mi Calm Calm - N/A Fog Patches of Fog
7:00 AM 32.0 °F - 30.2 °F 93% 30.33 in 0.1 mi Calm Calm - N/A Fog Light Freezing Fog
7:30 AM 30.2 °F - 30.2 °F 100% 30.33 in 0.1 mi Calm Calm - N/A Fog Light Freezing Fog
8:00 AM 30.2 °F - 30.2 °F 100% 30.36 in 0.1 mi Calm Calm - N/A Fog Light Freezing Fog
8:30 AM 28.4 °F - 28.4 °F 100% 30.36 in 0.1 mi Calm Calm - N/A Fog Light Freezing Fog
9:00 AM 30.2 °F - 30.2 °F 100% 30.36 in 0.1 mi Calm Calm - N/A Fog Light Freezing Fog
9:30 AM 32.0 °F - 30.2 °F 93% 30.39 in 0.2 mi Calm Calm - N/A Fog Light Freezing Fog
10:00 AM 32.0 °F - 32.0 °F 100% 30.39 in 0.1 mi East 1.2 mph - N/A Fog Light Freezing Fog
10:30 AM 32.0 °F - 32.0 °F 100% 30.42 in 0.2 mi East 2.3 mph - N/A Fog Fog
11:00 AM 35.6 °F - 35.6 °F 100% 30.42 in 0.1 mi Variable 2.3 mph - N/A Fog Fog
11:30 AM 37.4 °F - 37.4 °F 100% 30.42 in 1.1 mi Calm Calm - N/A   Mist
12:00 PM 41.0 °F - 39.2 °F 93% 30.42 in 5.0 mi Calm Calm - N/A   Unknown
12:30 PM 42.8 °F - 41.0 °F 93% 30.45 in 6.2 mi Calm Calm - N/A   Scattered Clouds
1:00 PM 42.8 °F - 41.0 °F 93% 30.42 in 6.2 mi Variable 1.2 mph - N/A   Unknown
1:30 PM 44.6 °F - 41.0 °F 87% 30.42 in 6.2 mi Calm Calm - N/A   Unknown
2:00 PM 46.4 °F - 41.0 °F 81% 30.45 in 6.2 mi Calm Calm - N/A   Unknown
2:30 PM 48.2 °F - 41.0 °F 76% 30.42 in 6.2 mi Variable 3.5 mph - N/A   Unknown
3:00 PM 48.2 °F - 41.0 °F 76% 30.42 in 6.2 mi West 3.5 mph - N/A   Unknown
3:30 PM 50.0 °F - 39.2 °F 66% 30.45 in 6.2 mi NNW 4.6 mph - N/A   Partly Cloudy
4:00 PM 48.2 °F - 39.2 °F 71% 30.45 in 6.2 mi North 4.6 mph - N/A   Unknown
4:30 PM 48.2 °F - 39.2 °F 71% 30.45 in 6.2 mi North 4.6 mph - N/A   Unknown
5:00 PM 48.2 °F - 39.2 °F 71% 30.48 in 6.2 mi North 3.5 mph - N/A   Unknown
5:30 PM 46.4 °F 45.2 °F 39.2 °F 76% 30.48 in 6.2 mi North 3.5 mph - N/A   Unknown
6:00 PM 44.6 °F - 39.2 °F 81% 30.48 in 6.2 mi NNW 2.3 mph - N/A   Unknown
6:30 PM 44.6 °F - 39.2 °F 81% 30.51 in 6.2 mi NNW 2.3 mph - N/A   Unknown
7:00 PM 42.8 °F - 39.2 °F 87% 30.51 in 6.2 mi Calm Calm - N/A   Unknown
7:30 PM 41.0 °F - 37.4 °F 87% 30.51 in 6.2 mi Variable 2.3 mph - N/A   Unknown
8:00 PM 41.0 °F - 39.2 °F 93% 30.51 in 6.2 mi SW 2.3 mph - N/A   Unknown
8:30 PM 41.0 °F - 39.2 °F 93% 30.51 in 6.2 mi Calm Calm - N/A   Unknown
9:00 PM 42.8 °F 41.1 °F 39.2 °F 87% 30.54 in 6.2 mi WSW 3.5 mph - N/A   Unknown
9:30 PM 42.8 °F - 39.2 °F 87% 30.54 in 6.2 mi Calm Calm - N/A   Unknown
10:00 PM 41.0 °F - 37.4 °F 87% 30.57 in 6.2 mi Calm Calm - N/A   Unknown
10:30 PM 42.8 °F - 39.2 °F 87% 30.57 in 6.2 mi Calm Calm - N/A   Unknown
11:00 PM 41.0 °F - 39.2 °F 93% 30.57 in 6.2 mi Calm Calm - N/A   Unknown
11:30 PM 42.8 °F - 39.2 °F 87% 30.57 in 5.6 mi Calm Calm - N/A   Unknown